Showing default

ZY 3 2, 41556

Orbit data source: Space-Track

ZY 3 2, 41556 is a Chinese payload satellite in SSO that was launched on Mon, 30 May 2016 UTC via a CHANG ZHENG 4B launch vehicle from the Taiyaun Space Center, China (TSC). Payload-class satellites include a variety of spacecraft equipped with specific instruments for various scientific and technological missions. These include communications satellites like Starlink; space stations such as the ISS; scientific satellites like the Hubble; Earth observation satellites from companies like Planet Labs, Umbra, and HawkEye 360; GPS; miniature CubeSats for education and research; and military/defense satellites.

Loading next visibility...
Identifier
41556, 2016-033A
Orbit
SSO
Country
Flag of CNCN / PRC
Related business
Manufacturer
CAST
Mission
Operational Civil Imaging
Bus & Motor
ZY, AOCS 20N
Mass
2,650 kg wet, ~2,600 kg dry
Launch date (UTC)
2016-05-30 (10 years ago)
Launch vehicle
CHANG ZHENG 4B
Launch site
Taiyaun Space Center, China (TSC)
Object type
Payload
Rocket body
Debris
Shape & HBR
Box + 2 Pan, 5.0 m
Radar Cross Section
10.304 m², Large (>1 m²)

Expand to show TLE details & history
Last TLE update: 22 hours ago

TLE from 22 hours ago
0 ZY 3 2
1 41556U 16033A   26172.53097848  .00003654  00000-0  16656-3 0  9991
2 41556  97.3832 248.2226 0012375 274.4666  85.5156 15.21213451558647
Epoch: 2026-06-21T12:44Z
TLE epoch observation values (Epoch: 2026-06-21T12:44:36.540Z)
Latitude
-0.00004°
Longitude
147.34044°
Altitude
504.617 km
Speed
7.612 km/s
True Right ascension
16h 32m 53s
True Declination
0° 00' 00"
Sunlit
Object was in full shadow at epoch
Visualization orbit readout
Latitude
Unknown
Longitude
Unknown
Altitude
Unknown
Speed
Unknown
Apparent Right ascension
Unknown
Apparent Declination
Unknown
Sunlit
N/A
Visualization observer readout
Local Sidereal Time
21:36:29
Azimuth
Unknown
Elevation
Unknown
Doppler factor
Unknown
Orbital elements
Apogee altitude
507.653 km
Perigee altitude
490.632 km
Semi-major axis
6,877.28 km
Eccentricity
0.00124
Inclination
97.3832°
RAAN
248.2226°
Arg. of periapsis
274.4666°
True anomaly
85.65699°
Mean anomaly
85.5156°
Eccentric anomaly
85.58629°
Mean motion
3.80556 °/min
Orbital period
94.6 mins
BSTAR
0.00016656
Loading maneuver chart data...
Computing Atmospheric mass density...
Loading historical data...
Loading historical data...
Loading historical data...
Loading historical data...
Loading historical data...
Loading historical data...
Loading historical data...

Documentation

Showing up to 5 results
|